TimeEDT,TemperatureF,Dew PointF,Humidity,Sea Level PressureIn,VisibilityMPH,Wind Direction,Wind SpeedMPH,Gust SpeedMPH,PrecipitationIn,Events,Conditions,WindDirDegrees,DateUTC
12:54 AM,61.0,51.1,70,30.14,10.0,ESE,11.5,-,N/A,,Clear,120,2013-09-28 04:54:00
1:54 AM,59.0,50.0,72,30.14,10.0,ESE,11.5,-,N/A,,Clear,120,2013-09-28 05:54:00
2:54 AM,57.9,50.0,75,30.13,10.0,ESE,6.9,-,N/A,,Clear,110,2013-09-28 06:54:00
3:54 AM,55.9,50.0,80,30.13,10.0,East,5.8,-,N/A,,Clear,100,2013-09-28 07:54:00
4:54 AM,55.0,50.0,83,30.12,10.0,ESE,4.6,-,N/A,,Clear,110,2013-09-28 08:54:00
5:54 AM,54.0,50.0,86,30.14,10.0,ESE,4.6,-,N/A,,Clear,110,2013-09-28 09:54:00
6:54 AM,53.1,50.0,89,30.14,10.0,ESE,5.8,-,N/A,,Clear,110,2013-09-28 10:54:00
7:54 AM,53.1,50.0,89,30.15,10.0,ESE,3.5,-,N/A,,Clear,110,2013-09-28 11:54:00
8:54 AM,57.0,52.0,83,30.15,10.0,ESE,4.6,-,N/A,,Clear,120,2013-09-28 12:54:00
9:54 AM,63.0,52.0,67,30.15,10.0,SE,4.6,-,N/A,,Clear,140,2013-09-28 13:54:00
10:54 AM,69.1,54.0,58,30.14,10.0,SSE,9.2,-,N/A,,Clear,160,2013-09-28 14:54:00
11:54 AM,73.9,55.0,52,30.12,10.0,South,8.1,-,N/A,,Clear,170,2013-09-28 15:54:00
12:54 PM,77.0,54.0,45,30.10,10.0,South,11.5,-,N/A,,Clear,170,2013-09-28 16:54:00
1:54 PM,78.1,52.0,40,30.06,10.0,South,13.8,20.7,N/A,,Clear,170,2013-09-28 17:54:00
2:54 PM,79.0,53.1,40,30.03,10.0,SSE,13.8,23.0,N/A,,Clear,160,2013-09-28 18:54:00
3:54 PM,81.0,50.0,34,30.01,10.0,SSW,13.8,23.0,N/A,,Clear,200,2013-09-28 19:54:00
4:54 PM,80.1,51.1,36,30.01,10.0,South,16.1,-,N/A,,Clear,180,2013-09-28 20:54:00
5:54 PM,80.1,53.1,39,29.99,10.0,South,10.4,20.7,N/A,,Clear,180,2013-09-28 21:54:00
6:54 PM,77.0,54.0,45,29.99,10.0,South,8.1,-,N/A,,Clear,170,2013-09-28 22:54:00
7:54 PM,75.0,53.1,46,29.97,10.0,SSE,8.1,-,N/A,,Clear,160,2013-09-28 23:54:00
8:54 PM,73.0,53.1,49,29.98,10.0,SSE,10.4,-,N/A,,Clear,160,2013-09-29 00:54:00
9:54 PM,71.1,54.0,55,29.98,10.0,South,8.1,-,N/A,,Clear,170,2013-09-29 01:54:00
10:54 PM,69.1,54.0,58,29.98,10.0,South,6.9,-,N/A,,Partly Cloudy,180,2013-09-29 02:54:00
11:54 PM,71.1,55.0,57,29.97,10.0,South,10.4,-,N/A,,Overcast,190,2013-09-29 03:54:00